SCP
-0 -0 -0 -0 -0 -0 -0 0 -0 0 0 0 -0 -0 -0 -0 -0 -0 -0 -0 -0 -0 -0 -0 -0 0 0 0 0 0 0 0 0 0 0 0 0 0 0 0 0 0 0
-0 -0 -0 -0 -0 -0 -0 -0 0 -0 -0 0 0 0 -0 -0 -0 -0 -0 -0 -0 -0 -0 -0 -0 0 -0 -0 -0 0 0 0 0 0 0 0 0 0 0 0 0 0 0
-0 -0 -0 -0 -0 -0 -0 -0 -0 -0 -0 -0 0 -0 -0 -0 -0 -0 -0 -0 -0 -0 -0 -0 -0 0 -0 -0 -0 0 0 0 0 0 0 0 0 0 0 0 0 0 0
-0 -0 -0 -0 -0 -0 -0 -0 0 0 0 -0 -0 -0 -0 -0 -0 -0 -0 -0 -0 -0 -0 -0 -0 -0 -0 -0 -0 0 0 0 0 0 0 1 0 1 0 0 1 1 1
-0 -0 -0 -0 -0 -0 -0 0 0 0 0 -0 -0 -0 -0 -0 -0 -0 -0 -0 -0 -0 -0 -0 -0 0 0 0 0 0 0 0 0 0 0 0 1 1 1 0 1 1 1
-0 -0 -0 -0 -0 -0 -0 -0 -0 0 -0 -0 -0 -0 -0 -0 -0 -0 -0 0 0 0 -0 -0 0 0 0 0 0 0 1 1 1 1 1 1 1 0 0 1 0 0 1
-0 -0 -0 -0 -0 -0 -0 -0 -0 -0 -0 -0 -0 -0 -0 -0 -0 -0 0 0 -0 0 0 0 0 0 0 0 1 1 1 2 2 2 2 1 1 1 1 1 0 0 0
-0 -0 -0 -0 -0 -0 -0 -0 -0 -0 -0 -0 -0 -0 -0 0 0 0 0 0 0 -0 0 0 0 0 1 1 2 3 3 4 3 3 2 2 1 1 2 2 2 1 1
0 -0 -0 -0 -0 -0 -0 -0 -0 -0 -0 -0 -0 0 0 0 0 0 0 0 -0 0 0 0 1 1 1 2 2 3 3 3 4 3 3 4 2 2 2 2 3 4 2
0 0 0 -0 0 -0 0 0 -0 -0 0 0 0 0 0 0 0 0 0 0 0 0 1 1 1 2 2 2 3 3 3 4 3 2 2 2 2 2 2 3 2 4 5
0 0 0 0 0 0 0 0 0 0 0 0 0 0 1 1 1 0 0 0 1 1 2 2 3 3 4 4 6 5 4 3 3 3 2 2 3 3 2 2 4 5 6
1 1 1 0 0 0 0 0 0 1 1 1 1 1 2 1 1 1 1 2 2 3 3 3 3 3 2 2 2 2 2 2 1 1 2 2 2 3 4 3 5 7 7
0 1 0 1 0 1 1 1 1 1 2 2 2 3 4 5 4 3 2 1 1 2 1 0 1 1 1 0 0 0 0 0 0 0 1 1 1 3 2 4 4 7 8
-0 0 0 1 2 2 1 1 2 2 2 3 3 3 2 1 0 0 0 0 0 0 0 0 0 0 0 0 0 0 0 0 0 0 0 1 1 2 3 3 4 5 6
0 1 0 1 2 3 3 3 3 1 1 1 1 0 0 0 0 0 0 0 0 0 0 0 0 0 0 0 0 0 0 0 0 0 0 0 0 0 0 1 2 5 6
1 1 1 2 2 2 3 3 3 1 0 0 0 0 0 0 0 0 0 0 0 0 0 0 0 0 0 0 0 0 0 0 0 0 0 0 0 0 0 0 0 1 2
1 0 1 2 2 2 1 0 0 0 0 0 0 -0 0 0 0 0 0 0 0 0 0 0 0 0 0 0 0 0 0 0 0 0 0 0 0 0 0 0 0 0 0
0 1 1 1 1 0 0 0 0 0 0 0 -0 -0 0 0 0 0 0 0 0 0 0 0 0 0 0 0 0 0 0 0 0 0 0 0 0 0 0 0 0 0 1
0 1 1 0 0 0 0 0 -0 -0 0 0 0 0 0 0 0 0 0 0 0 0 0 0 0 0 0 0 0 0 0 0 0 0 0 0 0 0 0 0 0 0 1
0 0 0 0 0 0 0 0 0 0 0 0 0 0 0 0 0 0 0 0 0 0 0 0 0 0 0 0 0 0 0 0 0 0 0 0 0 0 0 0 0 0 1
0 0 0 0 0 0 0 0 0 0 0 0 0 0 0 0 0 0 0 0 0 0 0 0 0 0 0 0 0 0 0 0 0 0 0 0 0 0 0 0 0 0 1
0 0 0 0 0 0 0 0 0 0 0 0 0 0 0 0 0 0 0 0 0 0 0 0 0 0 0 0 0 0 0 0 0 0 0 0 0 0 0 0 0 0 0
0 0 0 0 0 0 0 0 0 0 0 0 0 0 0 0 0 0 0 0 0 0 0 0 0 0 0 0 0 0 0 0 0 0 0 0 0 0 0 0 0 0 0
0 0 0 0 0 0 0 0 0 0 0 0 0 0 0 0 0 0 0 0 0 0 0 0 0 0 0 0 0 -0 0 0 0 0 0 0 0 0 0 0 0 0 0
0 0 0 0 0 0 0 0 0 0 0 0 0 0 0 0 0 0 0 0 0 0 0 0 0 0 0 0 -0 -0 0 0 0 0 0 0 0 0 0 0 0 0 0
0 0 0 0 0 0 0 0 0 0 0 0 0 0 0 0 0 0 0 0 0 0 0 -0 -0 0 0 -0 -0 -0 -0 -0 -0 0 0 0 0 0 0 0 0 0 0
Wind_Speed_500mb
48 48 49 52 51 48 47 48 46 42 39 36 34 35 34 31 32 32 34 34 31 29 31 25 23 22 21 22 25 23 22 19 20 26 26 27 23 18 12 15 18 14 13
48 51 52 53 53 52 50 49 49 47 43 38 35 30 28 28 28 29 32 36 37 36 34 34 29 26 25 28 28 28 24 23 22 23 29 25 22 6 20 25 16 18 12
52 56 58 59 58 58 55 53 55 52 49 45 39 37 33 31 27 31 31 30 34 37 40 41 38 35 35 31 31 30 30 27 25 24 21 21 25 35 26 22 19 17 19
52 56 62 65 66 64 59 59 60 59 57 56 48 47 40 36 31 29 27 29 32 31 33 37 40 41 34 35 32 30 32 32 34 30 29 33 34 28 28 26 29 30 29
56 60 66 66 63 60 60 58 64 65 61 59 57 53 52 41 35 32 32 35 34 37 35 36 38 39 36 35 38 37 41 36 35 35 34 35 37 40 38 49 35 32 34
60 60 57 55 61 60 61 60 60 67 64 62 58 58 55 49 40 38 35 31 28 28 32 31 31 31 34 35 37 41 46 48 47 44 40 42 41 47 48 51 51 47 42
63 62 62 65 65 69 68 64 62 69 67 65 62 57 54 54 55 53 40 34 30 28 29 31 30 29 34 39 44 48 54 55 55 49 46 45 50 46 50 51 55 52 49
63 67 69 70 70 70 70 67 64 70 68 64 60 56 52 52 47 46 41 35 32 29 28 29 30 32 37 43 48 49 49 46 51 57 60 53 57 51 43 52 51 52 55
51 62 62 67 68 67 68 69 63 59 62 57 53 50 48 49 44 39 32 33 36 31 33 37 39 38 38 38 41 45 48 50 56 54 58 61 55 51 47 43 49 51 56
40 49 57 62 63 62 61 58 55 55 51 50 48 46 40 35 38 40 40 34 31 35 39 44 41 40 45 45 45 46 45 48 49 48 49 52 51 53 49 51 53 53 59
21 36 48 53 57 54 55 55 52 48 45 47 41 40 40 33 28 28 31 35 35 37 39 39 41 43 46 45 48 51 50 53 54 56 57 61 59 56 50 54 56 59 58
8 15 26 41 44 47 47 50 46 46 41 43 44 41 43 33 27 27 29 33 29 30 38 43 47 50 52 55 59 58 53 56 58 57 54 57 53 58 59 57 62 69 70
8 14 22 28 36 41 41 38 39 34 40 39 40 35 34 36 35 30 29 26 30 35 35 39 42 48 54 55 56 59 61 62 63 64 66 67 60 66 62 63 63 66 75
15 19 25 33 35 34 42 46 48 33 22 37 37 40 36 29 20 20 21 16 22 26 31 39 43 47 50 52 50 49 54 58 59 60 61 61 58 60 61 62 65 68 76
17 21 27 31 41 39 40 51 38 36 34 32 30 28 20 17 13 12 14 17 23 26 28 35 38 44 47 32 52 59 62 63 63 63 61 56 55 63 68 68 66 62 63
22 26 31 32 36 40 40 51 56 49 37 39 28 19 9 6 9 9 11 11 19 24 31 36 39 40 33 44 48 48 52 54 55 58 57 54 58 56 57 61 65 68 80
28 30 37 36 40 41 50 60 54 53 43 23 10 7 6 3 9 8 11 15 18 25 28 29 29 28 25 38 40 44 46 48 49 50 49 53 51 53 54 57 61 61 61
36 44 44 43 43 49 56 56 51 36 28 25 27 19 20 15 11 9 9 13 16 19 21 22 23 26 26 36 44 48 46 47 48 44 44 45 47 46 50 53 55 53 56
45 46 49 47 48 53 50 41 33 29 19 5 25 21 10 11 8 8 8 12 15 18 21 21 25 26 31 35 41 42 42 42 45 44 41 43 50 51 53 54 56 55 53
54 58 56 59 59 51 42 40 31 13 23 22 24 14 12 7 4 4 11 14 17 22 19 22 23 26 32 38 44 45 44 43 46 43 42 43 43 50 53 54 50 50 46
57 56 52 50 44 38 31 18 21 24 25 25 20 13 7 6 9 14 18 18 15 16 20 20 20 24 35 41 47 47 43 44 47 46 46 46 46 48 49 42 45 42 35
63 56 51 46 38 31 30 28 29 27 24 21 14 13 15 12 14 19 18 15 14 18 20 20 20 22 33 39 45 44 42 44 41 46 48 49 49 45 44 35 33 37 30
62 52 49 45 38 36 30 29 26 24 22 18 18 20 19 19 19 15 14 16 18 18 22 24 27 30 32 35 44 49 51 48 39 44 39 44 47 42 40 34 17 17 22
55 49 48 44 40 34 31 26 26 24 23 25 25 24 19 16 17 16 16 16 17 21 25 28 32 30 30 42 50 46 38 41 46 41 42 44 46 41 36 30 27 16 12
51 51 46 43 42 37 33 29 28 29 29 27 25 21 17 17 21 19 17 19 31 31 26 27 24 28 31 40 46 48 46 42 38 42 45 50 48 44 43 37 28 22 17
50 45 43 43 41 37 36 35 32 30 28 25 22 19 16 15 14 13 20 23 19 21 24 27 30 29 34 38 47 45 39 36 33 31 47 57 61 47 44 40 36 36 43
Wind_Direction_500mb
191 191 190 191 193 196 199 202 205 209 209 212 214 219 224 229 232 234 236 237 239 244 253 254 261 267 271 272 280 283 291 299 303 306 316 311 306 295 271 306 295 291 284
191 193 193 194 198 200 203 207 209 213 215 213 213 213 222 228 234 237 239 246 246 249 252 257 257 262 267 280 290 290 285 286 295 301 314 317 318 289 310 296 280 285 251
194 195 198 200 202 204 206 208 213 216 217 214 216 221 224 226 233 237 242 247 251 252 254 255 259 261 271 272 275 284 284 285 289 288 291 309 305 309 310 306 285 274 272
196 198 201 203 204 205 205 208 212 216 220 222 219 225 226 230 236 239 242 243 252 261 261 262 265 267 262 256 264 275 275 282 288 291 285 280 283 293 299 287 290 294 286
198 198 203 205 204 205 205 207 210 216 221 228 227 233 235 237 240 241 243 255 252 265 267 266 269 268 261 261 263 265 281 282 281 284 289 286 286 282 279 291 293 285 282
202 205 205 202 204 204 206 208 214 219 225 230 233 236 243 246 238 246 244 251 253 258 266 264 271 266 260 261 265 275 281 283 282 278 279 286 287 287 285 283 286 287 287
203 206 204 203 203 205 207 208 212 221 223 229 236 238 241 247 251 250 250 252 253 257 258 259 270 263 270 265 268 274 280 281 279 276 278 280 280 279 279 279 280 284 285
204 206 205 206 206 206 207 208 212 220 225 229 234 240 243 247 250 251 245 249 252 256 261 262 265 265 270 273 274 275 276 274 275 275 280 279 277 274 265 273 271 279 282
213 215 212 207 205 204 205 207 208 215 221 228 233 238 244 248 244 245 245 257 254 259 273 276 269 269 272 273 273 279 279 276 274 273 274 273 272 268 268 268 269 265 272
224 220 214 210 207 205 204 204 207 211 217 221 228 230 230 240 245 248 256 250 255 262 256 255 265 268 275 279 277 279 283 282 281 277 272 270 266 269 273 270 263 260 257
228 215 207 205 204 200 197 198 199 202 209 213 216 224 232 233 244 248 250 251 254 257 263 268 267 272 273 275 277 280 283 288 286 284 280 279 279 276 270 270 267 259 258
186 195 198 191 197 194 191 190 191 191 196 208 208 212 218 224 230 228 231 233 244 256 267 271 275 278 279 285 289 289 284 281 279 278 276 274 277 269 271 269 265 262 265
156 160 173 179 179 172 167 176 169 190 181 194 197 193 202 209 212 223 237 258 266 265 271 277 286 289 291 290 290 289 287 285 284 281 279 278 275 272 270 264 265 265 268
150 156 162 159 154 158 156 157 153 145 163 153 176 185 189 200 209 232 248 268 279 281 291 292 296 295 294 292 292 288 288 287 285 282 279 277 274 270 269 271 270 265 263
160 159 154 150 146 151 152 158 153 162 172 158 166 178 182 203 208 241 273 302 291 292 297 298 300 300 299 299 287 291 292 291 288 285 285 284 279 273 269 266 264 261 265
167 158 139 149 143 143 139 139 140 147 163 147 153 155 162 207 225 262 307 305 301 303 313 309 304 301 303 291 297 302 303 302 305 305 301 295 293 291 291 285 277 269 259
168 155 146 144 136 134 134 137 140 143 138 128 90 52 17 254 326 304 310 316 313 314 309 305 303 311 319 314 323 324 321 318 314 309 307 306 301 296 285 279 277 278 265
163 153 147 138 134 141 138 134 131 124 86 28 0 342 294 301 321 328 311 307 313 318 320 329 328 327 315 321 324 323 320 317 315 309 304 303 304 304 297 292 281 277 268
156 150 144 137 136 138 136 138 114 84 51 57 236 233 232 262 275 281 319 343 345 354 4 355 348 339 333 330 329 322 317 313 312 308 305 302 301 295 292 291 286 280 272
153 150 148 144 146 148 149 147 135 181 245 187 193 193 203 213 262 2 25 25 28 25 16 5 359 359 2 359 348 336 327 327 325 316 317 316 309 302 302 286 286 279 275
151 146 142 144 150 152 159 183 146 151 161 172 171 161 142 126 83 57 46 47 37 22 21 23 18 18 17 11 3 349 344 341 337 333 329 328 326 318 310 290 277 278 270
149 146 144 150 152 154 158 155 151 148 152 156 145 118 113 112 81 64 57 52 51 44 36 35 29 14 5 2 6 5 8 359 350 347 343 338 332 326 325 312 277 275 254
149 150 152 153 161 161 160 160 157 157 149 133 131 137 125 102 83 69 60 56 55 58 47 39 31 24 11 3 3 9 10 5 4 357 352 353 356 355 354 357 329 276 221
150 149 151 154 154 158 158 163 154 147 148 151 142 129 119 106 95 86 78 79 76 70 59 49 35 26 17 12 16 10 7 8 9 9 9 17 15 15 17 21 20 1 255
152 152 154 156 157 159 158 158 157 154 152 147 143 135 124 115 97 100 106 86 86 78 70 56 43 31 21 16 14 13 12 11 9 23 31 32 32 39 50 52 52 60 67
152 152 153 156 157 158 162 166 163 159 155 149 142 142 136 125 122 106 96 92 83 55 46 47 46 41 34 30 27 22 21 16 15 24 37 42 41 46 45 43 49 69 82
Wind_Speed_850mb
48 48 49 52 51 48 47 48 46 42 39 36 34 35 34 31 32 32 34 34 31 29 31 25 23 22 21 22 25 23 22 19 20 26 26 27 23 18 12 15 18 14 13
48 51 52 53 53 52 50 49 49 47 43 38 35 30 28 28 28 29 32 36 37 36 34 34 29 26 25 28 28 28 24 23 22 23 29 25 22 6 20 25 16 18 12
52 56 58 59 58 58 55 53 55 52 49 45 39 37 33 31 27 31 31 30 34 37 40 41 38 35 35 31 31 30 30 27 25 24 21 21 25 35 26 22 19 17 19
52 56 62 65 66 64 59 59 60 59 57 56 48 47 40 36 31 29 27 29 32 31 33 37 40 41 34 35 32 30 32 32 34 30 29 33 34 28 28 26 29 30 29
56 60 66 66 63 60 60 58 64 65 61 59 57 53 52 41 35 32 32 35 34 37 35 36 38 39 36 35 38 37 41 36 35 35 34 35 37 40 38 49 35 32 34
60 60 57 55 61 60 61 60 60 67 64 62 58 58 55 49 40 38 35 31 28 28 32 31 31 31 34 35 37 41 46 48 47 44 40 42 41 47 48 51 51 47 42
63 62 62 65 65 69 68 64 62 69 67 65 62 57 54 54 55 53 40 34 30 28 29 31 30 29 34 39 44 48 54 55 55 49 46 45 50 46 50 51 55 52 49
63 67 69 70 70 70 70 67 64 70 68 64 60 56 52 52 47 46 41 35 32 29 28 29 30 32 37 43 48 49 49 46 51 57 60 53 57 51 43 52 51 52 55
51 62 62 67 68 67 68 69 63 59 62 57 53 50 48 49 44 39 32 33 36 31 33 37 39 38 38 38 41 45 48 50 56 54 58 61 55 51 47 43 49 51 56
40 49 57 62 63 62 61 58 55 55 51 50 48 46 40 35 38 40 40 34 31 35 39 44 41 40 45 45 45 46 45 48 49 48 49 52 51 53 49 51 53 53 59
21 36 48 53 57 54 55 55 52 48 45 47 41 40 40 33 28 28 31 35 35 37 39 39 41 43 46 45 48 51 50 53 54 56 57 61 59 56 50 54 56 59 58
8 15 26 41 44 47 47 50 46 46 41 43 44 41 43 33 27 27 29 33 29 30 38 43 47 50 52 55 59 58 53 56 58 57 54 57 53 58 59 57 62 69 70
8 14 22 28 36 41 41 38 39 34 40 39 40 35 34 36 35 30 29 26 30 35 35 39 42 48 54 55 56 59 61 62 63 64 66 67 60 66 62 63 63 66 75
15 19 25 33 35 34 42 46 48 33 22 37 37 40 36 29 20 20 21 16 22 26 31 39 43 47 50 52 50 49 54 58 59 60 61 61 58 60 61 62 65 68 76
17 21 27 31 41 39 40 51 38 36 34 32 30 28 20 17 13 12 14 17 23 26 28 35 38 44 47 32 52 59 62 63 63 63 61 56 55 63 68 68 66 62 63
22 26 31 32 36 40 40 51 56 49 37 39 28 19 9 6 9 9 11 11 19 24 31 36 39 40 33 44 48 48 52 54 55 58 57 54 58 56 57 61 65 68 80
28 30 37 36 40 41 50 60 54 53 43 23 10 7 6 3 9 8 11 15 18 25 28 29 29 28 25 38 40 44 46 48 49 50 49 53 51 53 54 57 61 61 61
36 44 44 43 43 49 56 56 51 36 28 25 27 19 20 15 11 9 9 13 16 19 21 22 23 26 26 36 44 48 46 47 48 44 44 45 47 46 50 53 55 53 56
45 46 49 47 48 53 50 41 33 29 19 5 25 21 10 11 8 8 8 12 15 18 21 21 25 26 31 35 41 42 42 42 45 44 41 43 50 51 53 54 56 55 53
54 58 56 59 59 51 42 40 31 13 23 22 24 14 12 7 4 4 11 14 17 22 19 22 23 26 32 38 44 45 44 43 46 43 42 43 43 50 53 54 50 50 46
57 56 52 50 44 38 31 18 21 24 25 25 20 13 7 6 9 14 18 18 15 16 20 20 20 24 35 41 47 47 43 44 47 46 46 46 46 48 49 42 45 42 35
63 56 51 46 38 31 30 28 29 27 24 21 14 13 15 12 14 19 18 15 14 18 20 20 20 22 33 39 45 44 42 44 41 46 48 49 49 45 44 35 33 37 30
62 52 49 45 38 36 30 29 26 24 22 18 18 20 19 19 19 15 14 16 18 18 22 24 27 30 32 35 44 49 51 48 39 44 39 44 47 42 40 34 17 17 22
55 49 48 44 40 34 31 26 26 24 23 25 25 24 19 16 17 16 16 16 17 21 25 28 32 30 30 42 50 46 38 41 46 41 42 44 46 41 36 30 27 16 12
51 51 46 43 42 37 33 29 28 29 29 27 25 21 17 17 21 19 17 19 31 31 26 27 24 28 31 40 46 48 46 42 38 42 45 50 48 44 43 37 28 22 17
50 45 43 43 41 37 36 35 32 30 28 25 22 19 16 15 14 13 20 23 19 21 24 27 30 29 34 38 47 45 39 36 33 31 47 57 61 47 44 40 36 36 43
Wind_Direction_850mb
191 191 190 191 193 196 199 202 205 209 209 212 214 219 224 229 232 234 236 237 239 244 253 254 261 267 271 272 280 283 291 299 303 306 316 311 306 295 271 306 295 291 284
191 193 193 194 198 200 203 207 209 213 215 213 213 213 222 228 234 237 239 246 246 249 252 257 257 262 267 280 290 290 285 286 295 301 314 317 318 289 310 296 280 285 251
194 195 198 200 202 204 206 208 213 216 217 214 216 221 224 226 233 237 242 247 251 252 254 255 259 261 271 272 275 284 284 285 289 288 291 309 305 309 310 306 285 274 272
196 198 201 203 204 205 205 208 212 216 220 222 219 225 226 230 236 239 242 243 252 261 261 262 265 267 262 256 264 275 275 282 288 291 285 280 283 293 299 287 290 294 286
198 198 203 205 204 205 205 207 210 216 221 228 227 233 235 237 240 241 243 255 252 265 267 266 269 268 261 261 263 265 281 282 281 284 289 286 286 282 279 291 293 285 282
202 205 205 202 204 204 206 208 214 219 225 230 233 236 243 246 238 246 244 251 253 258 266 264 271 266 260 261 265 275 281 283 282 278 279 286 287 287 285 283 286 287 287
203 206 204 203 203 205 207 208 212 221 223 229 236 238 241 247 251 250 250 252 253 257 258 259 270 263 270 265 268 274 280 281 279 276 278 280 280 279 279 279 280 284 285
204 206 205 206 206 206 207 208 212 220 225 229 234 240 243 247 250 251 245 249 252 256 261 262 265 265 270 273 274 275 276 274 275 275 280 279 277 274 265 273 271 279 282
213 215 212 207 205 204 205 207 208 215 221 228 233 238 244 248 244 245 245 257 254 259 273 276 269 269 272 273 273 279 279 276 274 273 274 273 272 268 268 268 269 265 272
224 220 214 210 207 205 204 204 207 211 217 221 228 230 230 240 245 248 256 250 255 262 256 255 265 268 275 279 277 279 283 282 281 277 272 270 266 269 273 270 263 260 257
228 215 207 205 204 200 197 198 199 202 209 213 216 224 232 233 244 248 250 251 254 257 263 268 267 272 273 275 277 280 283 288 286 284 280 279 279 276 270 270 267 259 258
186 195 198 191 197 194 191 190 191 191 196 208 208 212 218 224 230 228 231 233 244 256 267 271 275 278 279 285 289 289 284 281 279 278 276 274 277 269 271 269 265 262 265
156 160 173 179 179 172 167 176 169 190 181 194 197 193 202 209 212 223 237 258 266 265 271 277 286 289 291 290 290 289 287 285 284 281 279 278 275 272 270 264 265 265 268
150 156 162 159 154 158 156 157 153 145 163 153 176 185 189 200 209 232 248 268 279 281 291 292 296 295 294 292 292 288 288 287 285 282 279 277 274 270 269 271 270 265 263
160 159 154 150 146 151 152 158 153 162 172 158 166 178 182 203 208 241 273 302 291 292 297 298 300 300 299 299 287 291 292 291 288 285 285 284 279 273 269 266 264 261 265
167 158 139 149 143 143 139 139 140 147 163 147 153 155 162 207 225 262 307 305 301 303 313 309 304 301 303 291 297 302 303 302 305 305 301 295 293 291 291 285 277 269 259
168 155 146 144 136 134 134 137 140 143 138 128 90 52 17 254 326 304 310 316 313 314 309 305 303 311 319 314 323 324 321 318 314 309 307 306 301 296 285 279 277 278 265
163 153 147 138 134 141 138 134 131 124 86 28 0 342 294 301 321 328 311 307 313 318 320 329 328 327 315 321 324 323 320 317 315 309 304 303 304 304 297 292 281 277 268
156 150 144 137 136 138 136 138 114 84 51 57 236 233 232 262 275 281 319 343 345 354 4 355 348 339 333 330 329 322 317 313 312 308 305 302 301 295 292 291 286 280 272
153 150 148 144 146 148 149 147 135 181 245 187 193 193 203 213 262 2 25 25 28 25 16 5 359 359 2 359 348 336 327 327 325 316 317 316 309 302 302 286 286 279 275
151 146 142 144 150 152 159 183 146 151 161 172 171 161 142 126 83 57 46 47 37 22 21 23 18 18 17 11 3 349 344 341 337 333 329 328 326 318 310 290 277 278 270
149 146 144 150 152 154 158 155 151 148 152 156 145 118 113 112 81 64 57 52 51 44 36 35 29 14 5 2 6 5 8 359 350 347 343 338 332 326 325 312 277 275 254
149 150 152 153 161 161 160 160 157 157 149 133 131 137 125 102 83 69 60 56 55 58 47 39 31 24 11 3 3 9 10 5 4 357 352 353 356 355 354 357 329 276 221
150 149 151 154 154 158 158 163 154 147 148 151 142 129 119 106 95 86 78 79 76 70 59 49 35 26 17 12 16 10 7 8 9 9 9 17 15 15 17 21 20 1 255
152 152 154 156 157 159 158 158 157 154 152 147 143 135 124 115 97 100 106 86 86 78 70 56 43 31 21 16 14 13 12 11 9 23 31 32 32 39 50 52 52 60 67
152 152 153 156 157 158 162 166 163 159 155 149 142 142 136 125 122 106 96 92 83 55 46 47 46 41 34 30 27 22 21 16 15 24 37 42 41 46 45 43 49 69 82